User: anonymous   Login
Location: Unspecified
(0.0000°N, 0.0000°E)
Time: 05:32:05
(UTC+00:00)
Language:

Gonets-D1 - Orbit

View from above orbital plane
View from above orbital plane
View from above satellite
View from above satellite

Ground track
Ground track

The orbit data is extracted from the following two-line orbital elements,

1 23789U 96009C   17177.87181760 +.00000058 +00000-0 +26234-3 0  9997
2 23789 082.5803 252.1366 0003717 295.2505 064.8201 12.62594240984106
Epoch (UTC): 26 June 2017 20:55:25
Eccentricity: 0.0003717
inclination: 82.5803°
perigee height: 1409 km
apogee height: 1415 km
right ascension of ascending node: 252.1366°
argument of perigee: 295.2505°
revolutions per day: 12.62594240
mean anomaly at epoch: 64.8201°
orbit number at epoch: 98410

The dashed part of the orbit path shows where the satellite is in the earth's shadow,  

DLR